Weather reports worldwide

Advertisment
Deuselbach, Germany (10615): temperature & dewpoint: 16.06.2018 15:00:00 - 22.06.2018 15:00:00 (CEST)Deuselbach, Germany (10615): temperature 5cm & temperature -5cm: 16.06.2018 15:00:00 - 22.06.2018 15:00:00 (CEST)Deuselbach, Germany (10615): temperature -20cm & temperature -100cm: 16.06.2018 15:00:00 - 22.06.2018 15:00:00 (CEST)Deuselbach, Germany (10615): wind speed & gusts: 16.06.2018 15:00:00 - 22.06.2018 15:00:00 (CEST)Deuselbach, Germany (10615): wind direction: 16.06.2018 15:00:00 - 22.06.2018 15:00:00 (CEST)Deuselbach, Germany (10615): reduced air pressure: 16.06.2018 15:00:00 - 22.06.2018 15:00:00 (CEST)Deuselbach, Germany (10615): visibility: 16.06.2018 15:00:00 - 22.06.2018 15:00:00 (CEST)Deuselbach, Germany (10615): sunshine duration: 16.06.2018 15:00:00 - 22.06.2018 15:00:00 (CEST)Deuselbach, Germany (10615): precipitation: 16.06.2018 15:00:00 - 22.06.2018 15:00:00 (CEST)
Date & Time tt [°C] td [°C] tt 5cm [°C] tt -5cm [°C] tt -20cm [°C] tt -100cm [°C] ff [km/h] ff [kn] fx [km/h] fx [kn] dd ppp [hPa] vv [km] sd [min] rr [mm]
22.06.2018 15:00:00 12,8 5,5 14,6 15,4 15,6 15,7 20 11 35 19 NW 1025,8 58 1 0,0
22.06.2018 14:00:00 12,0 5,1 12,9 15,0 15,5 15,7 24 13 39 21 WNW 1026,2 56 0 0,0
22.06.2018 13:00:00 12,1 5,0 13,9 15,0 15,4 15,7 18 10 34 19 NW 1025,9 50 1 0,0
22.06.2018 12:00:00 11,4 5,0 12,6 14,6 15,3 15,7 22 12 32 18 W 1026,2 66 3 0,0
22.06.2018 11:00:00 10,7 4,7 12,4 14,1 15,2 15,6 18 10 43 23 NW 1026,1 60 6 0,0
22.06.2018 10:00:00 10,0 4,9 12,5 13,3 15,2 15,6 21 11 37 20 NW 1026,4 54 2 0,0
22.06.2018 09:00:00 8,8 4,8 10,4 13,0 15,3 15,6 16 9 30 16 WNW 1026,6 45 35 0,0
22.06.2018 08:00:00 8,2 5,0 9,0 11,8 15,4 15,6 10 5 21 12 W 1026,2 30 21 0,0
22.06.2018 07:00:00 7,1 4,4 7,2 11,6 15,7 15,6 12 7 18 10 W 1026,2 40 0 0,0
22.06.2018 06:00:00 6,9 4,7 6,9 11,5 16,0 15,6 8 4 18 10 W 1026,1 32 0 0,0
22.06.2018 05:00:00 6,3 4,4 6,0 11,4 16,4 15,6 8 4 14 8 W 1026,3 29 0 0,0
22.06.2018 04:00:00 5,9 3,9 3,5 11,9 16,9 15,6 8 4 12 7 WSW 1026,4 33 0 0,0
22.06.2018 03:00:00 6,6 4,2 5,0 12,6 17,3 15,6 10 6 18 10 WNW 1026,3 40 0 0,0
22.06.2018 02:00:00 7,5 4,1 5,5 13,2 17,8 15,6 10 5 27 15 NW 1026,1 51 0 0,0
22.06.2018 01:00:00 8,0 3,8 6,5 14,0 18,4 15,6 10 5 20 11 WNW 1025,6 59 0 0,0
22.06.2018 00:00:00 8,6 3,1 7,1 14,9 18,9 15,5 16 8 24 13 NW 1025,3 69 0 0,0
21.06.2018 23:00:00 9,7 2,5 8,2 16,2 19,5 15,5 17 9 33 18 NW 1024,6 68 0 0,0
21.06.2018 22:00:00 10,8 2,5 9,6 17,8 20,0 15,5 25 13 41 22 NNW 1023,9 57 0 0,0
21.06.2018 21:00:00 12,7 3,0 12,5 19,8 20,3 15,5 24 13 44 24 NNW 1022,7 62 56 0,0
21.06.2018 20:00:00 14,6 3,4 15,8 21,7 20,4 15,5 27 15 42 23 NNW 1021,5 33 56 0,0
21.06.2018 19:00:00 16,3 3,8 18,7 23,1 20,3 15,5 29 15 45 24 NW 1020,4 26 60 0,0
21.06.2018 18:00:00 17,4 4,7 20,3 24,0 20,0 15,5 25 14 39 21 NW 1019,7 19 60 0,0
21.06.2018 17:00:00 18,1 6,8 21,4 24,0 19,7 15,5 24 13 41 22 NW 1019,1 27 60 0,0
21.06.2018 16:00:00 18,3 5,2 22,8 23,3 19,3 15,4 21 11 39 21 NW 1018,8 30 53 0,0
21.06.2018 15:00:00 17,5 7,1 20,5 22,0 19,1 15,4 29 16 48 26 WNW 1018,6 31 45 0,0
21.06.2018 14:00:00 17,5 10,7 21,6 20,7 19,0 15,4 32 17 45 25 NW 1018,1 25 28 0,0
21.06.2018 13:00:00 16,3 11,6 18,1 19,5 18,9 15,4 22 12 44 24 WNW 1018,4 53 0 0,0
21.06.2018 12:00:00 17,1 13,1 19,8 20,1 18,8 15,4 27 14 50 27 WNW 1017,7 49 6 0,0
21.06.2018 11:00:00 18,0 13,2 19,8 20,3 18,5 15,4 30 16 46 25 WNW 1017,0 42 31 0,0
21.06.2018 10:00:00 19,0 13,7 21,4 19,4 18,4 15,4 28 15 37 20 WNW 1016,0 25 59 0,0
21.06.2018 09:00:00 18,2 12,6 20,0 18,2 18,3 15,3 19 10 29 16 W 1016,3 41 60 0,0
21.06.2018 08:00:00 17,3 13,7 17,7 17,1 18,4 15,3 13 7 20 11 WSW 1016,5 29 60 0,0
21.06.2018 07:00:00 16,9 13,7 16,0 16,3 18,7 15,3 13 7 18 10 SW 1016,3 26 43 0,0
21.06.2018 06:00:00 15,2 13,2 13,6 16,4 19,1 15,3 15 8 19 10 WSW 1016,8 31 0 0,0
21.06.2018 05:00:00 15,7 13,4 11,9 16,9 19,5 15,3 7 4 10 5 SW 1017,2 40 0 0,0
21.06.2018 04:00:00 16,4 13,3 12,1 17,5 19,8 15,3 6 4 16 8 SSW 1017,5 53 0 0,0
21.06.2018 03:00:00 17,4 13,2 15,1 18,1 20,3 15,3 11 6 17 9 SW 1017,5 30 0 0,0
21.06.2018 02:00:00 17,3 13,0 14,5 18,7 20,7 15,3 8 4 16 9 SW 1017,7 68 0 0,0
21.06.2018 01:00:00 17,5 13,8 14,2 19,5 21,2 15,2 4 2 13 7 E 1017,9 54 0 0,0
21.06.2018 00:00:00 17,7 13,9 14,4 20,5 21,7 15,2 6 3 8 4 S 1018,2 61 0 0,0
20.06.2018 23:00:00 18,5 14,0 15,2 21,8 22,1 15,2 6 4 8 4 S 1018,3 45 0 0,0
20.06.2018 22:00:00 20,5 14,3 16,9 23,4 22,4 15,2 6 3 9 5 S 1017,8 67 0 0,0
20.06.2018 21:00:00 23,3 14,1 22,6 25,2 22,6 15,2 8 4 13 7 WNW 1017,2 70 57 0,0
20.06.2018 20:00:00 24,9 13,5 26,0 26,8 22,7 15,2 11 6 19 10 WNW 1017,2 53 60 0,0
20.06.2018 19:00:00 25,6 13,5 28,0 28,3 22,5 15,2 13 7 22 12 NW 1017,4 44 60 0,0
20.06.2018 18:00:00 25,8 13,9 29,3 29,4 22,1 15,2 15 8 23 13 NW 1017,7 42 60 0,0
20.06.2018 17:00:00 25,9 15,3 30,3 29,9 21,5 15,2 14 8 23 12 NW 1018,1 37 60 0,0
20.06.2018 16:00:00 25,0 14,8 30,1 29,7 20,7 15,2 14 7 21 12 NW 1018,7 44 60 0,0
20.06.2018 15:00:00 24,9 15,3 30,5 28,8 19,9 15,2 12 7 25 13 WNW 1019,0 42 60 0,0
20.06.2018 14:00:00 24,6 14,4 31,8 27,4 19,0 15,2 5 3 16 9 N 1019,7 50 60 0,0
20.06.2018 13:00:00 23,3 13,8 30,1 25,7 18,2 15,2 10 5 16 9 NW 1020,5 41 60 0,0
20.06.2018 12:00:00 22,4 13,7 29,8 23,4 17,5 15,2 4 2 15 8 ENE 1021,0 30 48 0,0
20.06.2018 11:00:00 21,5 14,2 25,4 21,1 16,9 15,2 6 3 20 11 S 1021,5 69 55 0,0
20.06.2018 10:00:00 20,7 14,7 23,8 18,9 16,5 15,2 13 7 25 13 SE 1021,6 54 60 0,0
20.06.2018 09:00:00 19,2 13,9 20,2 17,3 16,3 15,2 14 7 26 14 ESE 1022,0 23 60 0,0
20.06.2018 08:00:00 17,9 15,0 17,0 16,0 16,2 15,2 8 4 13 7 SE 1022,2 28 24 0,0
20.06.2018 07:00:00 15,6 14,3 15,5 14,7 16,3 15,2 3 1 8 4 SE 1023,0 16 40 0,0
20.06.2018 06:00:00 13,6 13,5 12,9 14,1 16,6 15,2 3 1 6 3 N 1023,6 12 0 0,0
20.06.2018 05:00:00 13,7 13,5 9,7 14,4 16,9 15,2 5 3 8 5 E 1023,6 18 0 0,0
20.06.2018 04:00:00 13,9 13,5 11,3 14,8 17,2 15,2 7 4 8 5 SSE 1023,9 29 0 0,0
20.06.2018 03:00:00 13,8 13,4 11,6 15,2 17,5 15,2 7 4 9 5 SE 1024,3 29 0 0,0
20.06.2018 02:00:00 14,4 14,1 12,0 15,8 17,8 15,2 6 3 8 5 SSE 1024,6 34 0 0,0
20.06.2018 01:00:00 14,6 14,0 12,3 16,4 18,1 15,2 8 4 9 5 SE 1024,6 38 0 0,0
20.06.2018 00:00:00 14,7 14,3 12,6 17,1 18,4 15,2 6 3 8 4 SSE 1024,7 27 0 0,0
19.06.2018 23:00:00 15,3 14,6 13,1 18,0 18,7 15,2 5 3 9 5 SSE 1024,5 34 0 0,0
19.06.2018 22:00:00 17,0 15,1 13,3 19,2 18,8 15,2 4 2 5 3 S 1023,9 31 0 0,0
19.06.2018 21:00:00 18,6 15,0 17,4 20,5 18,8 15,2 4 2 8 4 WNW 1023,7 70 2 0,0
19.06.2018 20:00:00 19,8 15,1 22,5 21,0 18,7 15,2 8 5 14 8 N 1023,4 70 15 0,0
19.06.2018 19:00:00 19,5 14,7 20,9 21,2 18,6 15,2 8 4 16 8 NW 1023,8 70 0 0,0
19.06.2018 18:00:00 19,7 14,8 21,5 21,5 18,4 15,2 12 7 18 10 NW 1023,9 70 0 0,0
19.06.2018 17:00:00 19,8 14,3 22,0 21,5 18,0 15,2 11 6 17 9 NW 1024,1 70 1 0,0
19.06.2018 16:00:00 20,1 14,7 23,3 21,2 17,7 15,2 11 6 16 9 NW 1024,0 70 0 0,0
19.06.2018 15:00:00 19,6 14,3 23,4 20,7 17,4 15,2 7 4 15 8 WSW 1024,2 70 2 0,0
19.06.2018 14:00:00 18,3 13,7 21,4 19,9 17,0 15,2 9 5 19 10 NNW 1024,6 70 0 0,0
19.06.2018 13:00:00 18,0 13,9 20,2 19,8 16,6 15,2 11 6 19 11 NW 1024,8 63 2 0,0
19.06.2018 12:00:00 18,3 14,4 20,9 19,1 16,2 15,2 10 6 17 9 WNW 1024,4 65 3 0,0
19.06.2018 11:00:00 17,3 14,0 19,8 17,5 15,9 15,3 8 4 15 8 NW 1024,6 68 2 0,0
19.06.2018 10:00:00 16,1 13,8 18,0 16,2 15,8 15,3 9 5 16 8 W 1024,8 58 0 0,0
19.06.2018 09:00:00 14,9 13,5 15,8 15,5 15,7 15,3 10 5 20 11 WSW 1024,9 37 0 0,0
19.06.2018 08:00:00 14,5 13,1 15,0 14,9 15,8 15,3 13 7 19 10 SW 1024,6 24 1 0,0
19.06.2018 07:00:00 14,0 13,2 13,7 14,2 15,9 15,3 14 7 21 11 WSW 1024,4 15 31 0,0
19.06.2018 06:00:00 13,9 13,0 12,6 14,3 16,0 15,3 13 7 16 9 WSW 1024,2 18 0 0,0
19.06.2018 05:00:00 13,8 13,3 12,3 14,5 16,2 15,3 11 6 19 11 SW 1023,6 18 0 0,0
19.06.2018 04:00:00 14,4 13,7 13,1 14,8 16,4 15,3 13 7 19 10 WSW 1023,6 24 0 0,0
19.06.2018 03:00:00 14,5 13,6 13,7 14,9 16,5 15,3 11 6 19 11 SW 1023,5 27 0 0,0
19.06.2018 02:00:00 14,4 13,4 13,1 15,0 16,8 15,3 13 7 20 11 SW 1023,3 32 0 0,0
19.06.2018 01:00:00 14,6 13,4 13,3 15,3 17,0 15,3 15 8 21 12 SW 1023,1 33 0 0,0
19.06.2018 00:00:00 15,1 13,7 13,6 15,8 17,2 15,3 15 8 23 12 SW 1023,0 34 0 0,0
18.06.2018 23:00:00 15,5 13,6 14,0 16,4 17,4 15,3 12 7 18 10 SW 1022,8 37 0 0,0
18.06.2018 22:00:00 16,0 13,5 14,4 17,2 17,5 15,3 11 6 19 10 SW 1022,4 42 0 0,0
18.06.2018 21:00:00 17,6 13,7 17,0 18,0 17,5 15,3 12 7 22 12 SW 1021,8 46 29 0,0
18.06.2018 20:00:00 18,2 13,3 18,8 18,7 17,5 15,3 16 9 26 14 WSW 1021,6 32 52 0,0
18.06.2018 19:00:00 17,9 13,4 19,6 18,4 17,4 15,3 16 9 24 13 SW 1021,7 33 3 0,0
18.06.2018 18:00:00 17,7 13,2 18,7 18,3 17,4 15,3 12 7 24 13 WSW 1022,1 54 0 0,0
18.06.2018 17:00:00 17,7 12,7 18,6 18,5 17,3 15,3 14 7 25 13 WSW 1022,3 50 0 0,0
18.06.2018 16:00:00 18,0 12,3 19,6 18,7 17,1 15,3 14 8 27 15 WSW 1022,2 62 0 0,0
18.06.2018 15:00:00 17,9 12,0 19,6 18,8 16,9 15,3 16 9 25 13 WSW 1022,0 57 0 0,0
18.06.2018 14:00:00 17,8 11,7 19,8 18,8 16,6 15,3 17 9 25 13 SW 1021,9 49 1 0,0
18.06.2018 13:00:00 17,3 11,0 19,9 18,8 16,3 15,3 15 8 27 15 SW 1022,1 51 13 0,0
18.06.2018 12:00:00 17,0 10,7 19,2 17,5 16,0 15,3 14 8 28 15 WSW 1022,2 68 1 0,0
18.06.2018 11:00:00 16,4 10,1 17,6 17,5 15,7 15,3 15 8 23 13 WSW 1022,1 59 15 0,0
18.06.2018 10:00:00 16,2 10,2 18,0 16,2 15,5 15,3 16 9 23 12 WSW 1022,1 59 8 0,0
18.06.2018 09:00:00 15,1 10,2 16,4 15,0 15,4 15,3 12 7 23 12 WSW 1022,2 50 2 0,0
18.06.2018 08:00:00 14,4 9,5 15,2 14,0 15,4 15,3 13 7 21 11 SW 1021,9 50 48 0,0
18.06.2018 07:00:00 12,9 8,8 12,4 13,2 15,6 15,3 8 5 13 7 SSW 1022,1 62 36 0,0
18.06.2018 06:00:00 11,9 8,6 10,6 13,5 15,7 15,3 10 5 13 7 SSW 1022,2 53 0 0,0
18.06.2018 05:00:00 11,9 9,2 11,1 13,7 15,9 15,3 6 3 10 5 SW 1022,1 52 0 0,0
18.06.2018 04:00:00 12,5 8,9 11,7 13,9 16,0 15,3 7 4 11 6 SSW 1021,9 61 0 0,0
18.06.2018 03:00:00 12,3 9,1 11,5 14,1 16,2 15,3 4 2 8 4 SSW 1022,1 56 0 0,0
18.06.2018 02:00:00 12,4 9,3 11,6 14,1 16,4 15,3 3 1 11 6 W 1022,0 54 0 0,0
18.06.2018 01:00:00 12,5 9,1 11,8 14,2 16,6 15,3 7 4 14 7 SW 1021,9 53 0 0,0
18.06.2018 00:00:00 12,6 8,9 11,9 14,4 16,9 15,3 13 7 17 9 WSW 1021,6 54 0 0,0
17.06.2018 23:00:00 12,5 8,7 10,9 14,9 17,2 15,3 12 6 18 10 WSW 1021,2 60 0 0,0
17.06.2018 22:00:00 13,2 8,7 12,0 15,7 17,5 15,3 13 7 24 13 W 1020,4 61 0 0,0
17.06.2018 21:00:00 14,5 8,5 13,6 16,6 17,7 15,3 17 9 32 17 W 1020,3 64 6 0,0
17.06.2018 20:00:00 15,7 8,5 15,7 17,4 17,7 15,3 18 10 40 22 W 1019,8 66 7 0,0
17.06.2018 19:00:00 16,3 9,5 17,1 18,1 17,8 15,3 22 12 34 19 W 1019,2 39 8 0,0
17.06.2018 18:00:00 16,9 10,1 18,1 18,4 17,8 15,3 22 12 31 17 WNW 1018,6 51 5 0,0
17.06.2018 17:00:00 17,0 11,0 18,8 18,3 17,8 15,3 20 11 31 17 W 1018,6 41 0 0,0
17.06.2018 16:00:00 16,5 10,1 17,1 18,7 17,7 15,3 22 12 34 18 W 1018,6 51 0 0,0
17.06.2018 15:00:00 17,1 10,0 18,4 19,0 17,6 15,3 22 12 35 19 W 1018,4 41 2 0,0
17.06.2018 14:00:00 16,8 10,1 17,8 18,9 17,4 15,3 23 12 37 20 W 1018,1 47 4 0,0
17.06.2018 13:00:00 17,5 10,2 20,3 18,7 17,2 15,3 20 11 35 19 WSW 1018,1 50 5 0,0
17.06.2018 12:00:00 17,3 10,2 18,8 18,7 16,9 15,3 23 13 33 18 W 1017,9 45 9 0,0
17.06.2018 11:00:00 18,2 10,2 21,2 18,4 16,6 15,3 20 11 28 15 WSW 1017,6 48 41 0,0
17.06.2018 10:00:00 17,0 11,2 19,8 17,0 16,3 15,3 10 5 18 10 W 1018,0 47 27 0,0
17.06.2018 09:00:00 15,7 10,0 17,5 15,9 16,3 15,3 10 5 13 7 WSW 1018,0 40 25 0,0
17.06.2018 08:00:00 13,8 11,3 14,3 14,8 16,3 15,3 4 2 7 4 SW 1018,3 30 0 0,0
17.06.2018 07:00:00 12,8 11,0 12,7 14,2 16,5 15,3 3 2 11 6 S 1018,4 26 4 0,0
17.06.2018 06:00:00 11,8 10,5 10,9 13,9 16,8 15,3 7 4 10 5 SSW 1018,1 24 0 0,0
17.06.2018 05:00:00 11,9 10,5 10,3 14,2 17,2 15,3 8 4 12 6 SW 1017,9 25 0 0,0
17.06.2018 04:00:00 12,7 10,6 10,2 14,7 17,5 15,3 8 4 13 7 WSW 1017,6 30 0 0,0
17.06.2018 03:00:00 12,7 10,9 10,8 15,3 17,9 15,3 10 5 14 8 SW 1017,5 31 0 0,0
17.06.2018 02:00:00 13,5 11,3 11,9 15,9 18,2 15,3 9 5 11 6 W 1016,9 33 0 0,0
17.06.2018 01:00:00 14,0 11,3 11,7 16,5 18,6 15,3 6 3 20 11 W 1016,9 35 0 0,0
17.06.2018 00:00:00 15,0 11,6 13,5 17,2 19,0 15,3 13 7 21 12 WSW 1016,7 42 0 0,0
16.06.2018 23:00:00 16,0 12,4 13,9 18,2 19,3 15,3 10 5 22 12 WSW 1016,4 45 0 0,0
16.06.2018 22:00:00 17,0 13,7 15,9 19,3 19,5 15,3 11 6 20 11 W 1015,6 50 0 0,0
16.06.2018 21:00:00 18,6 14,1 17,6 20,3 19,7 15,3 14 7 28 15 W 1014,7 54 2 0,0
16.06.2018 20:00:00 20,1 13,0 19,9 21,2 19,8 15,3 12 7 22 12 W 1014,1 70 11 0,0
16.06.2018 19:00:00 21,5 12,8 22,4 22,0 19,8 15,3 7 4 20 11 WSW 1013,6 70 15 0,0
16.06.2018 18:00:00 21,0 12,7 21,3 23,0 19,5 15,3 10 6 16 8 WSW 1013,7 70 4 0,0
16.06.2018 17:00:00 21,7 12,2 22,8 23,9 19,1 15,3 5 3 11 6 WSW 1013,6 70 22 0,0
16.06.2018 16:00:00 22,3 11,3 26,1 23,7 18,7 15,3 7 4 14 8 W 1013,9 36 57 0,0
16.06.2018 15:00:00 20,4 12,1 21,9 21,4 18,4 15,3 5 3 18 10 W 1014,7 70 2 0,0

tt = temperature
td = dewpoint
tt 5cm = temperature 5cm
tt -5cm = temperature -5cm
tt -20cm = temperature -20cm
tt -100cm = temperature -100cm
ff = wind speed
fx = gusts
dd = wind direction
ppp = reduced air pressure
vv = visibility
sd = sunshine duration
rr = precipitation

Next stations